480  
ASUS41 KCTP 031510  
RWRCTP  
 
REGIONAL WEATHER ROUNDUP  
NATIONAL WEATHER SERVICE STATE COLLEGE PA  
1100 AM EDT MON AUG 03 2020  
 
NOTE: "FAIR" INDICATES FEW OR NO CLOUDS BELOW 12,000 FEET WITH NO  
SIGNIFICANT WEATHER AND/OR S TO VISIBILITY
.  
 
* = STATION THAT DOES NOT REPORT PRECIPITATION /E.G. RAIN...SNOW...ETC/  
THUNDER OR FOG.
 
 
PAZ002>004-007>009-013>016-020>023-029>032-031600-  
WESTERN PENNSYLVANIA  
 
CITY SKY/WX TMP DP RH WIND PRES REMARKS
 
ERIE MOSUNNY 76 64 66 S14G20 30.01F  
MEADVILLE SUNNY 71 64 78 VRB6 30.06S  
FRANKLIN PTSUNNY 72 65 78 VRB6 30.08F  
NEW CASTLE FAIR 75 65 70 VRB6 30.06S  
BEAVER COUNTY MOSUNNY 77 65 65 S9 30.06S  
BUTLER PTSUNNY 77 66 69 S7 30.07S  
PITTSBURGH INT MOSUNNY 76 62 62 S9 30.05F  
PITTSBURGH MOSUNNY 76 65 68 VRB7 30.06F  
INDIANA* MOSUNNY 75 64 69 SW7 30.13R  
LATROBE MOSUNNY 77 64 65 SW9 30.08S  
WASHINGTON CO* MOSUNNY 77 66 68 VRB5 30.09F  

 
 
PAZ004>006-010>012-017>019-024>028-033>037-041-042-045-046-049>053-031600-  
CENTRAL PENNSYLVANIA  
 
CITY SKY/WX TMP DP RH WIND PRES REMARKS
 
BRADFORD PTSUNNY 70 59 68 VRB6 30.10S  
ST MARYS PTSUNNY 68 61 77 W3 30.13  
DUBOIS MOSUNNY 71 60 68 SW7 30.09S  
CLEARFIELD PTSUNNY 74 60 61 MISG 30.10R  
JOHNSTOWN MOSUNNY 70 60 70 SW7 30.12S  
SOMERSET FAIR 68 61 77 SW8 30.13S  
ALTOONA PTSUNNY 71 63 75 SW5 30.11R  
STATE COLLEGE MOSUNNY 73 63 68 SW6 30.10R  
REEDSVILLE FAIR 75 64 69 SW6 30.08  
WELLSBORO FAIR 72 59 64 VRB6 30.09S  
WILLIAMSPORT PTSUNNY 79 60 52 VRB7 30.05R  
SELINSGROVE CLOUDY 76 62 62 CALM 30.07R  
FT INDIANTOWN NOT AVBL  
CAPITAL CITY PTSUNNY 81 63 54 SW7 30.06S  
HARRISBURG PTSUNNY 81 63 54 W6 30.05S  
YORK PTSUNNY 79 64 60 VRB5 30.07S  

 
 
PAZ038>040-043-044-047-048-054-055-060>062-067>071-031600-  
EASTERN PENNSYLVANIA  
 
CITY SKY/WX TMP DP RH WIND PRES REMARKS
 
TOWANDA MOSUNNY 77 61 57 CALM 30.06S  
SCRANTON PTSUNNY 78 62 57 VRB6 30.07R  
MOUNT POCONO MOSUNNY 72 61 68 W7 30.10R  
HAZLETON FAIR 73 61 64 W5 30.13S  
LEHIGHTON FAIR 79 64 61 SW6 30.06S  
ALLENTOWN MOSUNNY 77 65 66 W6 30.05S  
QN CITY/ALNTWN FAIR 79 66 65 W8 30.07S  
QUAKERTOWN* SUNNY 81 64 57 W6 30.07S  
PERKASIE* SUNNY 77 66 69 W6 30.08S  
DOYLESTOWN PTSUNNY 81 63 54 MISG 30.06R  
READING SUNNY 80 65 59 W9 30.05S  
LANCASTER MOSUNNY 81 63 54 W5 30.06F  
COATESVILLE MOSUNNY 79 63 57 N5 30.09S  
WEST CHESTER SUNNY 81 61 50 CALM 30.07S  
POTTSTOWN MOSUNNY 78 65 63 MISG 30.08S  
BLUE BELL SUNNY 81 65 58 W5 30.07S  
NORTH PHILA SUNNY 82 65 56 NW8 30.06S  
PHILADELPHIA MOSUNNY 83 62 49 SW10G17 30.05S  

 
 
 
CLICK HERE TO GO TO PREVIOUS BULLETINS.

The Nexlab PA Page Main Text Page